User: anonymous   Login
Location: Unspecified
(0.0000°N, 0.0000°E)
Time: 19:02:20
(UTC+00:00)
Language:

Geosat - Orbit

View from above orbital plane
View from above orbital plane
View from above satellite
View from above satellite

Ground track
Ground track

The orbit data is extracted from the following two-line orbital elements,

1 15595U 85021A   17084.53811385 -.00000048 +00000-0 +28920-4 0  9993
2 15595 108.0487 282.3222 0001989 248.3656 171.9404 14.38012954678359
Epoch (UTC): 25 March 2017 12:54:53
Eccentricity: 0.0001989
inclination: 108.0487°
perigee height: 763 km
apogee height: 766 km
right ascension of ascending node: 282.3222°
argument of perigee: 248.3656°
revolutions per day: 14.38012954
mean anomaly at epoch: 171.9404°
orbit number at epoch: 67835

The dashed part of the orbit path shows where the satellite is in the earth's shadow,  

DLR